Albion, NE

3:28 AM CDT on May 23, 2018 (GMT -0500)
Albion Municipal

Weather History for KBVN - October, 2011

Change the Weather History Date:

Friday, October 14, 2011

  Actual Average (KOFK) Record (KOFK)
Temperature  
Mean Temperature 48 °F -  
Max Temperature 55 °F 64 °F 90 °F (1908)
Min Temperature 42 °F 38 °F 22 °F (1969)
Degree Days  
Heating Degree Days 16    
Moisture  
Dew Point 32 °F    
Average Humidity 51    
Maximum Humidity 70    
Minimum Humidity 36    
Precipitation  
Precipitation 0.00 in - - ()
Sea Level Pressure  
Sea Level Pressure 30.00 in    
Wind  
Wind Speed 10 mph (NW)    
Max Wind Speed 22 mph    
Max Gust Speed 28 mph    
Visibility 10 miles    
Events      
Averages and records for this station are not official NWS values.
T = Trace of Precipitation, MM = Missing Value Source: NWS Daily Summary

Daily Weather History Graph

Daily Weather History Graph

Search for Another Location

Airport or City:

Astronomy

Oct. 14, 2011 Rise Set
Actual Time 7:43 AM CDT 6:52 PM CDT
Civil Twilight 7:15 AM CDT 7:20 PM CDT
Nautical Twilight 6:42 AM CDT 7:52 PM CDT
Astronomical Twilight 6:10 AM CDT 8:25 PM CDT
Moon 8:04 PM CDT (10/14) 10:15 AM CDT (10/14)
Length of Visible Light 12h 05m
Length of Day
11h 09m
Waning Gibbous, 94% of the Moon is Illuminated
Oct 14
Waning Gibbous
Oct 19
Last Quarter
Oct 26
New
Nov 2
First Quarter
Nov 10
Full

Hourly Weather History & Observations

Time (CDT) Temp. Windchill Dew Point Humidity Pressure Visibility Wind Dir Wind Speed Gust Speed Precip Events Conditions
12:35 AM 46.4 °F 42.9 °F 33.8 °F 62% 29.90 in 10.0 mi NW 6.9 mph - N/A   Clear
1:15 AM 46.4 °F 43.5 °F 33.8 °F 62% 29.91 in 10.0 mi NW 5.8 mph - N/A   Clear
1:35 AM 46.4 °F 42.9 °F 32.0 °F 57% 29.91 in 10.0 mi NW 6.9 mph - N/A   Clear
1:55 AM 48.2 °F - 32.0 °F 54% 29.92 in 10.0 mi NW 11.5 mph - N/A   Clear
2:15 AM 48.2 °F - 32.0 °F 54% 29.92 in 10.0 mi NW 10.4 mph - N/A   Clear
2:35 AM 46.4 °F 41.5 °F 32.0 °F 57% 29.93 in 10.0 mi NNW 10.4 mph - N/A   Clear
2:55 AM 46.4 °F 41.9 °F 32.0 °F 57% 29.94 in 10.0 mi NW 9.2 mph - N/A   Clear
3:15 AM 46.4 °F 41.5 °F 32.0 °F 57% 29.95 in 10.0 mi NW 10.4 mph - N/A   Clear
3:35 AM 46.4 °F 41.9 °F 32.0 °F 57% 29.94 in 10.0 mi NNW 9.2 mph - N/A   Clear
3:55 AM 44.6 °F 40.7 °F 32.0 °F 61% 29.94 in 10.0 mi NNW 6.9 mph - N/A   Clear
4:15 AM 44.6 °F 40.2 °F 32.0 °F 61% 29.95 in 10.0 mi NNW 8.1 mph - N/A   Clear
4:35 AM 44.6 °F 40.7 °F 32.0 °F 61% 29.95 in 10.0 mi NNW 6.9 mph - N/A   Clear
4:55 AM 42.8 °F 38.0 °F 32.0 °F 66% 29.95 in 10.0 mi NNW 8.1 mph - N/A   Clear
5:15 AM 42.8 °F 38.0 °F 32.0 °F 66% 29.95 in 10.0 mi NNW 8.1 mph - N/A   Clear
5:35 AM 42.8 °F 38.0 °F 32.0 °F 66% 29.96 in 10.0 mi NNW 8.1 mph - N/A   Clear
5:55 AM 42.8 °F 38.6 °F 33.8 °F 70% 29.96 in 10.0 mi NNW 6.9 mph - N/A   Clear
6:15 AM 42.8 °F 38.6 °F 33.8 °F 70% 29.97 in 10.0 mi NNW 6.9 mph - N/A   Clear
6:35 AM 44.6 °F 41.4 °F 33.8 °F 66% 29.97 in 10.0 mi NW 5.8 mph - N/A   Clear
6:55 AM 44.6 °F 42.2 °F 33.8 °F 66% 29.97 in 10.0 mi NW 4.6 mph - N/A   Clear
7:15 AM 46.4 °F 42.9 °F 33.8 °F 62% 29.98 in 10.0 mi NNW 6.9 mph - N/A   Clear
7:35 AM 46.4 °F 42.9 °F 33.8 °F 62% 29.98 in 10.0 mi NW 6.9 mph - N/A   Clear
7:55 AM 46.4 °F 42.9 °F 33.8 °F 62% 29.98 in 10.0 mi NW 6.9 mph - N/A   Clear
8:15 AM 46.4 °F 42.9 °F 33.8 °F 62% 29.99 in 10.0 mi NW 6.9 mph - N/A   Clear
8:35 AM 48.2 °F - 33.8 °F 58% 30.00 in 10.0 mi NW 6.9 mph - N/A   Clear
8:55 AM 50.0 °F - 33.8 °F 54% 30.01 in 10.0 mi NW 8.1 mph - N/A   Clear
9:15 AM 50.0 °F - 35.6 °F 58% 30.01 in 10.0 mi NW 11.5 mph 18.4 mph N/A   Clear
9:35 AM 50.0 °F - 35.6 °F 58% 30.01 in 10.0 mi NW 11.5 mph 18.4 mph N/A   Scattered Clouds
9:55 AM 50.0 °F - 35.6 °F 58% 30.01 in 10.0 mi NW 11.5 mph - N/A   Mostly Cloudy
10:15 AM 51.8 °F - 35.6 °F 54% 30.02 in 10.0 mi NW 12.7 mph - N/A   Mostly Cloudy
10:35 AM 51.8 °F - 35.6 °F 54% 30.02 in 10.0 mi NW 13.8 mph 19.6 mph N/A   Mostly Cloudy
10:55 AM 53.6 °F - 35.6 °F 51% 30.03 in 10.0 mi NW 12.7 mph - N/A   Mostly Cloudy
11:15 AM 53.6 °F - 35.6 °F 51% 30.04 in 10.0 mi NW 12.7 mph - N/A   Mostly Cloudy
11:35 AM 53.6 °F - 35.6 °F 51% 30.04 in 10.0 mi NW 13.8 mph 20.7 mph N/A   Mostly Cloudy
11:55 AM 55.4 °F - 33.8 °F 44% 30.04 in 10.0 mi NW 17.3 mph 23.0 mph N/A   Mostly Cloudy
12:15 PM 55.4 °F - 35.6 °F 47% 30.04 in 10.0 mi NW 15.0 mph 21.9 mph N/A   Overcast
12:35 PM 55.4 °F - 33.8 °F 44% 30.05 in 10.0 mi NNW 17.3 mph 26.5 mph N/A   Overcast
12:55 PM 55.4 °F - 33.8 °F 44% 30.05 in 10.0 mi NW 19.6 mph 26.5 mph N/A   Overcast
1:15 PM 55.4 °F - 32.0 °F 41% 30.04 in 10.0 mi NW 21.9 mph 27.6 mph N/A   Overcast
1:35 PM 55.4 °F - 32.0 °F 41% 30.04 in 10.0 mi NW 13.8 mph 23.0 mph N/A   Overcast
1:55 PM 55.4 °F - 32.0 °F 41% 30.03 in 10.0 mi NW 15.0 mph 21.9 mph N/A   Overcast
2:15 PM 55.4 °F - 32.0 °F 41% 30.03 in 10.0 mi NW 17.3 mph 23.0 mph N/A   Overcast
2:35 PM 55.4 °F - 32.0 °F 41% 30.03 in 10.0 mi NW 20.7 mph 25.3 mph N/A   Overcast
2:55 PM 55.4 °F - 32.0 °F 41% 30.03 in 10.0 mi NW 15.0 mph 23.0 mph N/A   Overcast
3:15 PM 55.4 °F - 30.2 °F 38% 30.03 in 10.0 mi NW 19.6 mph 26.5 mph N/A   Overcast
3:35 PM 55.4 °F - 30.2 °F 38% 30.03 in 10.0 mi NW 16.1 mph 25.3 mph N/A   Overcast
3:55 PM 55.4 °F - 28.4 °F 36% 30.02 in 10.0 mi NW 20.7 mph 26.5 mph N/A   Overcast
4:15 PM 55.4 °F - 30.2 °F 38% 30.02 in 10.0 mi NW 17.3 mph 25.3 mph N/A   Overcast
4:35 PM 55.4 °F - 28.4 °F 36% 30.02 in 10.0 mi NW 17.3 mph 24.2 mph N/A   Overcast
4:55 PM 55.4 °F - 28.4 °F 36% 30.02 in 10.0 mi NW 18.4 mph 21.9 mph N/A   Overcast
5:15 PM 55.4 °F - 28.4 °F 36% 30.03 in 10.0 mi NW 19.6 mph 23.0 mph N/A   Overcast
5:35 PM 55.4 °F - 28.4 °F 36% 30.02 in 10.0 mi NW 13.8 mph 18.4 mph N/A   Overcast
5:55 PM 55.4 °F - 28.4 °F 36% 30.03 in 10.0 mi NW 12.7 mph 19.6 mph N/A   Overcast
6:15 PM 55.4 °F - 28.4 °F 36% 30.03 in 10.0 mi NW 13.8 mph 23.0 mph N/A   Overcast
6:35 PM 55.4 °F - 28.4 °F 36% 30.03 in 10.0 mi NW 11.5 mph 20.7 mph N/A   Overcast
6:55 PM 53.6 °F - 28.4 °F 38% 30.04 in 10.0 mi NW 8.1 mph - N/A   Overcast
7:15 PM 53.6 °F - 28.4 °F 38% 30.04 in 10.0 mi NW 6.9 mph - N/A   Overcast
7:35 PM 48.2 °F - 30.2 °F 50% 30.05 in 10.0 mi NW 4.6 mph - N/A   Scattered Clouds
8:15 PM 46.4 °F 44.3 °F 30.2 °F 53% 30.06 in 10.0 mi NW 4.6 mph - N/A   Clear
8:35 PM 46.4 °F 44.3 °F 30.2 °F 53% 30.06 in 10.0 mi NNW 4.6 mph - N/A   Clear
8:55 PM 44.6 °F 43.1 °F 30.2 °F 57% 30.06 in 10.0 mi NNW 3.5 mph - N/A   Clear
9:15 PM 46.4 °F 43.5 °F 30.2 °F 53% 30.06 in 10.0 mi NNW 5.8 mph - N/A   Clear
9:55 PM 44.6 °F 40.7 °F 30.2 °F 57% 30.06 in 10.0 mi NNW 6.9 mph - N/A   Clear
10:15 PM 44.6 °F 41.4 °F 30.2 °F 57% 30.07 in 10.0 mi NNW 5.8 mph - N/A   Clear
10:35 PM 44.6 °F 43.1 °F 30.2 °F 57% 30.06 in 10.0 mi NNW 3.5 mph - N/A   Clear
10:55 PM 44.6 °F 42.2 °F 30.2 °F 57% 30.06 in 10.0 mi NNW 4.6 mph - N/A   Clear
11:15 PM 42.8 °F 41.1 °F 30.2 °F 61% 30.07 in 10.0 mi NNW 3.5 mph - N/A   Clear
11:35 PM 42.8 °F 41.1 °F 30.2 °F 61% 30.07 in 10.0 mi NNW 3.5 mph - N/A   Clear
11:55 PM 37.4 °F - 32.0 °F 81% 30.06 in 10.0 mi Calm Calm - N/A   Mostly Cloudy